Latest Weather Observations for Snowtown

IDS60801

Issued at 3:35 am CST Wednesday 1 October 2014 (issued every 30 minutes, with the page automatically refreshed every 10 minutes)

About weather observations | Map of weather stations | Latest weather observations for SA | Other Formats
Station Details ID: 021133 Name: RAYVILLE PARK Lat: -33.77 Lon: 138.22 Height: 109.1 m
Data from the previous 72 hours. | See also: Recent months at Snowtown
Date/Time
CST
Temp
°C
App
Temp
°C
Dew
Point
Rel
Hum
%
Delta-T
°C
Wind Press
QNH
hPa
Press
MSL
hPa
Rain
since 9 am
mm
Dir
 
Spd
km/h
Gust
km/h
Spd
kts
Gust
kts
01/03:30am 2.9 -0.4 2.3 96 0.2 SW 9 11 5 6 1024.5 1024.5 0.0
01/03:00am 2.9 1.3 2.3 96 0.2 SW 0 0 0 0 1024.4 1024.4 0.0
01/02:30am 3.2 1.6 2.6 96 0.2 CALM 0 0 0 0 1024.3 1024.3 0.0
01/02:00am 3.4 1.8 2.5 94 0.4 CALM 0 0 0 0 1024.1 1024.1 0.0
01/01:30am 4.3 2.8 3.0 91 0.5 CALM 0 0 0 0 1024.1 1024.1 0.0
01/01:00am 6.8 4.1 5.4 91 0.6 SW 9 11 5 6 1024.1 1024.1 0.0
01/12:30am 7.0 3.5 5.5 90 0.7 SSW 13 17 7 9 1023.9 1023.9 0.0
01/12:00am 7.6 4.3 6.4 92 0.5 SW 13 17 7 9 1023.7 1023.7 0.0
 
Date/Time
CST
Temp
°C
App
Temp
°C
Dew
Point
Rel
Hum
%
Delta-T
°C
Wind Press
QNH
hPa
Press
MSL
hPa
Rain
since 9 am
mm
Dir
 
Spd
km/h
Gust
km/h
Spd
kts
Gust
kts
30/11:30pm 8.7 5.7 7.5 92 0.6 SSW 13 17 7 9 1023.5 1023.5 0.0
30/11:00pm 9.4 6.2 8.5 94 0.4 SSW 15 22 8 12 1023.4 1023.4 0.0
30/10:30pm 8.5 6.5 7.1 91 0.7 S 7 11 4 6 1023.2 1023.2 0.0
30/10:00pm 9.7 7.2 8.1 90 0.8 SSW 11 13 6 7 1023.0 1023.0 0.0
30/09:30pm 10.8 7.3 8.9 88 0.9 SSW 17 22 9 12 1023.1 1023.1 0.0
30/09:00pm 10.5 6.3 8.4 87 1.0 WSW 20 24 11 13 1022.6 1022.6 0.0
30/08:30pm 10.2 6.5 8.1 87 1.0 W 17 19 9 10 1022.5 1022.5 0.0
30/08:00pm 10.1 6.8 7.9 86 1.1 WSW 15 17 8 9 1022.1 1022.2 0.0
30/07:30pm 10.0 6.4 6.7 80 1.5 WSW 15 19 8 10 1021.5 1021.5 0.0
30/07:00pm 11.7 8.1 6.8 72 2.3 SW 15 22 8 12 1020.8 1020.8 0.0
30/06:30pm 13.3 9.1 7.3 67 2.9 SW 19 24 10 13 1020.0 1020.0 0.0
30/06:00pm 14.9 9.0 7.5 61 3.7 SW 28 39 15 21 1019.5 1019.5 0.0
30/05:30pm 16.1 10.0 8.3 60 4.0 SW 30 41 16 22 1019.0 1019.0 0.0
30/05:00pm 17.3 11.1 9.2 59 4.2 SW 32 44 17 24 1018.5 1018.5 0.0
30/04:30pm 18.3 11.8 10.4 60 4.2 SW 35 46 19 25 1017.8 1017.8 0.0
30/04:00pm 20.3 13.9 9.5 50 5.8 SW 33 46 18 25 1017.1 1017.1 0.0
30/03:43pm 21.0 14.7 9.6 48 6.1 WSW 33 52 18 28 1016.9 1016.9 0.0
30/03:30pm 21.0 14.5 8.3 44 6.7 WSW 32 48 17 26 1016.6 1016.6 0.0
30/03:00pm 21.3 13.8 9.5 47 6.3 WSW 39 57 21 31 1016.4 1016.4 0.0
30/02:36pm 22.0 14.3 8.5 42 7.2 WSW 39 61 21 33 1016.2 1016.2 0.0
30/02:30pm 22.1 14.3 8.2 41 7.3 WSW 39 54 21 29 1016.2 1016.2 0.0
30/02:00pm 22.3 14.7 7.7 39 7.6 W 37 56 20 30 1016.2 1016.2 0.0
30/01:58pm 22.5 15.1 8.2 40 7.6 W 37 56 20 30 1016.2 1016.2 0.0
30/01:30pm 22.3 14.5 8.4 41 7.4 WSW 39 52 21 28 1016.5 1016.5 0.0
30/01:12pm 22.8 16.0 9.2 42 7.3 WSW 35 54 19 29 1016.5 1016.5 0.0
30/01:00pm 22.2 15.0 9.0 43 7.1 WSW 37 50 20 27 1016.6 1016.6 0.0
30/12:30pm 22.0 14.6 8.2 41 7.3 W 37 50 20 27 1016.5 1016.5 0.0
30/12:00pm 22.2 15.5 8.3 41 7.3 W 33 46 18 25 1016.4 1016.4 0.0
30/11:30am 21.5 13.9 7.7 41 7.2 W 37 52 20 28 1016.5 1016.5 0.0
30/11:07am 22.0 15.3 8.2 41 7.3 W 33 52 18 28 1016.3 1016.3 0.0
30/11:00am 22.0 14.4 7.4 39 7.6 W 37 48 20 26 1016.3 1016.3 0.0
30/10:30am 22.9 15.8 6.2 34 8.5 W 33 52 18 28 1015.8 1015.8 0.0
30/10:29am 22.6 15.3 5.5 33 8.6 W 33 52 18 28 1015.7 1015.7 0.0
30/10:00am 22.0 13.3 5.8 35 8.2 W 41 54 22 29 1015.8 1015.8 0.0
30/09:36am 22.0 14.9 6.3 36 8.0 W 33 52 18 28 1015.7 1015.7 0.0
30/09:30am 21.9 14.2 7.0 38 7.7 W 37 54 20 29 1015.6 1015.6 0.0
30/09:02am 20.4 14.8 8.7 47 6.2 WNW 28 46 15 25 1015.6 1015.6 0.0
30/09:00am 20.5 14.8 8.5 46 6.3 WNW 28 41 15 22 1015.7 1015.7 0.0
30/08:30am 19.6 14.4 8.9 50 5.6 NW 26 41 14 22 1015.4 1015.4 0.0
30/08:00am 14.8 11.2 9.8 72 2.6 NNE 19 24 10 13 1015.2 1015.2 0.0
30/07:30am 12.6 8.7 8.5 76 2.0 NNE 19 24 10 13 1015.2 1015.2 0.0
30/07:00am 10.3 6.1 7.5 83 1.3 N 19 26 10 14 1015.0 1015.0 0.0
30/06:30am 8.1 4.1 6.6 90 0.7 N 17 24 9 13 1014.5 1014.5 0.0
30/06:00am 7.9 3.2 6.2 89 0.8 N 20 24 11 13 1014.1 1014.1 0.0
30/05:30am 8.1 3.5 6.6 90 0.7 N 20 24 11 13 1013.7 1013.6 0.0
30/05:00am 7.5 2.9 6.3 92 0.5 N 20 24 11 13 1013.3 1013.2 0.0
30/04:30am 6.0 1.7 5.3 95 0.3 N 17 19 9 10 1013.1 1013.0 0.0
30/04:00am 6.2 2.3 5.5 95 0.3 N 15 17 8 9 1012.9 1012.8 0.0
30/03:30am 6.7 2.5 5.8 94 0.4 N 17 19 9 10 1012.6 1012.6 0.0
30/03:00am 6.3 1.7 5.7 96 0.3 N 19 20 10 11 1013.1 1013.0 0.0
30/02:30am 5.9 2.0 5.3 96 0.3 N 15 19 8 10 1013.6 1013.5 0.0
30/02:00am 5.7 2.1 5.0 95 0.3 N 13 17 7 9 1013.9 1013.8 0.0
30/01:30am 5.7 1.7 5.0 95 0.3 N 15 17 8 9 1014.3 1014.3 0.0
30/01:00am 5.8 2.5 4.8 93 0.4 N 11 13 6 7 1014.7 1014.7 0.0
30/12:30am 6.6 3.5 5.4 92 0.5 N 11 13 6 7 1015.0 1015.0 0.0
30/12:00am 7.5 4.2 6.4 93 0.5 N 13 17 7 9 1015.2 1015.2 0.0
 
Date/Time
CST
Temp
°C
App
Temp
°C
Dew
Point
Rel
Hum
%
Delta-T
°C
Wind Press
QNH
hPa
Press
MSL
hPa
Rain
since 9 am
mm
Dir
 
Spd
km/h
Gust
km/h
Spd
kts
Gust
kts
29/11:30pm 7.5 4.5 5.8 89 0.8 N 11 15 6 8 1015.4 1015.4 0.0
29/11:00pm 8.3 5.9 6.8 90 0.7 WSW 9 11 5 6 1015.3 1015.3 0.0
29/10:30pm 8.1 6.7 5.4 83 1.2 WSW 2 9 1 5 1015.3 1015.3 0.0
29/10:00pm 10.7 6.9 7.6 81 1.5 WSW 17 19 9 10 1015.4 1015.4 0.0
29/09:30pm 11.2 7.8 7.7 79 1.7 WSW 15 17 8 9 1015.5 1015.5 0.0
29/09:00pm 12.0 8.6 7.7 75 2.1 W 15 19 8 10 1015.6 1015.6 0.0
29/08:30pm 13.1 9.4 7.8 70 2.6 W 17 20 9 11 1015.7 1015.7 0.0
29/08:00pm 11.7 8.7 7.6 76 2.0 W 13 15 7 8 1015.2 1015.2 0.0
29/07:30pm 13.5 9.9 8.4 71 2.6 W 17 20 9 11 1014.9 1014.9 0.0
29/07:00pm 13.1 9.6 8.6 74 2.3 W 17 22 9 12 1014.2 1014.2 0.0
29/06:30pm 13.5 10.8 9.0 74 2.3 W 13 17 7 9 1013.6 1013.5 0.0
29/06:00pm 18.2 15.9 9.0 55 4.8 W 11 13 6 7 1013.4 1013.3 0.0
29/05:30pm 21.4 18.8 7.6 41 7.2 W 11 15 6 8 1013.3 1013.2 0.0
29/05:00pm 22.6 19.1 7.2 37 8.0 WNW 15 22 8 12 1013.0 1012.9 0.0
29/04:30pm 23.0 18.8 5.9 33 8.7 WNW 17 22 9 12 1012.9 1012.8 0.0
29/04:00pm 22.9 18.3 5.8 33 8.7 NW 19 26 10 14 1013.0 1012.9 0.0
29/03:30pm 22.9 18.6 7.0 36 8.3 NW 19 26 10 14 1013.1 1013.0 0.0
29/03:00pm 22.5 18.2 7.1 37 8.0 NW 19 28 10 15 1013.5 1013.4 0.0
29/02:30pm 22.6 18.0 6.4 35 8.3 WNW 20 30 11 16 1013.9 1013.8 0.0
29/02:00pm 22.5 18.0 7.1 37 8.0 WNW 20 28 11 15 1014.1 1014.1 0.0
29/01:30pm 22.1 17.5 6.7 37 7.9 NW 20 32 11 17 1014.4 1014.4 0.0
29/01:00pm 21.8 17.9 6.9 38 7.7 WNW 17 28 9 15 1014.6 1014.6 0.0
29/12:30pm 21.7 18.7 7.9 41 7.2 W 13 24 7 13 1014.8 1014.8 0.0
29/12:00pm 21.3 18.9 8.6 44 6.7 NW 11 30 6 16 1015.3 1015.3 0.0
29/11:30am 20.8 18.2 9.4 48 6.1 NW 13 24 7 13 1015.8 1015.8 0.0
29/11:00am 19.9 17.7 9.5 51 5.6 W 11 19 6 10 1016.3 1016.3 0.0
29/10:30am 19.0 16.6 10.0 56 4.8 NW 13 20 7 11 1016.5 1016.5 0.0
29/10:00am 18.9 16.2 10.5 58 4.5 NNW 15 22 8 12 1016.9 1016.9 0.0
29/09:30am 17.5 15.6 10.4 63 3.8 NW 11 19 6 10 1017.1 1017.1 0.0
29/09:00am 16.7 14.3 11.4 71 2.9 NNE 15 22 8 12 1017.4 1017.4 0.0
29/08:30am 15.4 13.1 11.8 79 2.0 NNE 15 20 8 11 1017.4 1017.4 0.0
29/08:00am 15.4 14.3 13.2 87 1.2 NNE 11 15 6 8 1017.3 1017.3 0.0
29/07:30am 12.3 11.2 12.0 98 0.2 N 9 11 5 6 1016.9 1016.9 0.0
29/07:00am 9.8 8.1 9.7 99 0.1 NNW 9 11 5 6 1016.6 1016.6 0.0
29/06:30am 7.1 4.7 6.8 98 0.1 N 9 13 5 7 1016.3 1016.3 0.0
29/06:00am 5.9 2.8 5.6 98 0.1 N 11 13 6 7 1016.0 1016.0 0.0
29/05:30am 6.5 2.8 6.2 98 0.1 N 15 17 8 9 1015.7 1015.7 0.0
29/05:00am 6.3 3.2 5.7 96 0.3 NNE 11 13 6 7 1015.5 1015.5 0.0
29/04:30am 7.6 5.6 7.0 96 0.3 N 7 11 4 6 1015.2 1015.2 0.0
29/04:00am 8.2 6.9 7.6 96 0.3 WNW 4 9 2 5 1015.3 1015.3 0.0
29/03:30am 8.1 6.3 7.2 94 0.4 NNE 6 9 3 5 1015.1 1015.1 0.0
29/03:00am 9.4 6.6 8.5 94 0.4 W 13 17 7 9 1015.1 1015.1 0.0
29/02:30am 10.7 8.5 9.5 92 0.6 WNW 11 13 6 7 1015.0 1015.0 0.0
29/02:00am 10.5 6.6 9.4 93 0.6 W 20 24 11 13 1015.0 1015.0 0.0
29/01:30am 10.0 6.0 8.9 93 0.5 W 20 22 11 12 1015.4 1015.4 0.0
29/01:00am 9.5 5.4 8.6 94 0.4 W 20 24 11 13 1015.8 1015.8 0.0
29/12:30am 8.5 4.7 7.4 93 0.5 W 17 19 9 10 1016.1 1016.1 0.0
29/12:00am 8.6 5.5 7.4 92 0.6 W 13 15 7 8 1016.4 1016.4 0.0
 
Date/Time
CST
Temp
°C
App
Temp
°C
Dew
Point
Rel
Hum
%
Delta-T
°C
Wind Press
QNH
hPa
Press
MSL
hPa
Rain
since 9 am
mm
Dir
 
Spd
km/h
Gust
km/h
Spd
kts
Gust
kts
28/11:30pm 8.6 5.3 8.0 96 0.3 W 15 17 8 9 1016.4 1016.4 0.0
28/11:00pm 7.7 4.2 7.1 96 0.3 W 15 17 8 9 1016.5 1016.5 0.0
28/10:30pm 7.5 4.7 6.8 95 0.3 W 11 13 6 7 1016.6 1016.6 0.0
28/10:00pm 8.0 5.2 6.8 92 0.6 W 11 13 6 7 1016.4 1016.4 0.0
28/09:30pm 9.4 7.5 7.5 88 0.9 WSW 7 9 4 5 1016.4 1016.4 0.0
28/09:00pm 10.2 7.4 8.6 90 0.8 WSW 13 17 7 9 1016.2 1016.2 0.0
28/08:30pm 10.8 8.7 8.2 84 1.3 SW 9 13 5 7 1015.9 1015.9 0.0
28/08:00pm 13.0 10.8 9.3 78 1.9 SSW 11 15 6 8 1015.0 1015.0 0.0
28/07:30pm 14.7 13.0 9.7 72 2.6 S 9 15 5 8 1014.0 1014.0 0.0
28/07:00pm 16.0 12.0 10.3 69 3.0 SW 22 28 12 15 1012.7 1012.7 0.0
28/06:30pm 16.9 13.8 10.3 65 3.5 S 17 24 9 13 1012.2 1012.2 0.0
28/06:00pm 18.4 14.1 10.7 61 4.2 SSW 24 35 13 19 1010.6 1010.6 0.0
28/05:30pm 19.8 14.9 11.3 58 4.7 SSW 28 37 15 20 1009.6 1009.6 0.0
28/05:00pm 21.2 15.3 11.0 52 5.6 WSW 33 44 18 24 1008.9 1008.9 0.0
28/04:30pm 24.8 18.1 9.5 38 8.4 WSW 35 50 19 27 1008.0 1008.0 0.0
28/04:00pm 29.1 21.8 4.6 21 12.6 W 32 46 17 25 1007.4 1007.4 0.0
28/03:30pm 30.6 22.5 1.0 15 14.5 NW 33 46 18 25 1007.1 1007.1 0.0
28/03:02pm 29.7 20.4 0.3 15 14.1 NW 39 57 21 31 1007.4 1007.4 0.0
28/03:00pm 30.0 20.3 0.6 15 14.3 NW 41 57 22 31 1007.4 1007.4 0.0
28/02:34pm 30.2 20.2 0.7 15 14.3 NW 43 61 23 33 1007.7 1007.7 0.0
28/02:30pm 30.2 20.2 0.7 15 14.4 NW 43 57 23 31 1007.8 1007.8 0.0
28/02:01pm 31.0 20.7 0.4 14 14.9 NW 44 63 24 34 1008.0 1008.0 0.0
28/02:00pm 31.1 20.6 1.4 15 14.7 NW 46 63 25 34 1008.0 1008.0 0.0
28/01:30pm 30.9 19.8 0.3 14 14.9 NNW 48 69 26 37 1008.3 1008.3 0.0
28/01:00pm 30.2 19.1 2.5 17 13.9 NNW 50 69 27 37 1008.5 1008.5 0.0
28/12:49pm 30.0 20.6 2.3 17 13.8 NNW 41 67 22 36 1008.6 1008.6 0.0
28/12:47pm 30.5 21.9 2.7 17 14.0 NNW 37 50 20 27 1008.6 1008.6 0.0
28/12:30pm 29.1 16.7 1.6 17 13.5 NNW 56 78 30 42 1008.7 1008.7 0.0
28/12:00pm 29.0 17.1 2.3 18 13.3 NNW 54 74 29 40 1008.8 1008.8 0.0
28/11:30am 28.6 16.8 2.7 19 12.9 NNW 54 74 29 40 1008.9 1008.9 0.0
28/11:26am 28.3 16.6 3.2 20 12.6 NNW 54 72 29 39 1009.0 1009.0 0.0
28/11:24am 28.3 16.8 2.5 19 12.8 NNW 52 69 28 37 1008.9 1008.9 0.0
28/11:00am 27.7 12.8 2.7 20 12.4 NNW 70 98 38 53 1009.0 1009.0 0.0
28/10:30am 27.1 12.4 2.2 20 12.2 NNW 69 93 37 50 1009.4 1009.4 0.0
28/10:00am 26.8 12.5 2.7 21 11.9 NNW 67 89 36 48 1010.0 1010.0 0.0
28/09:30am 26.7 14.0 3.2 22 11.7 NNW 59 87 32 47 1010.2 1010.2 0.0
28/09:23am 26.4 14.6 4.8 25 11.0 NNW 56 87 30 47 1010.2 1010.2 0.0
28/09:00am 26.3 15.8 3.5 23 11.4 NW 48 67 26 36 1010.5 1010.5 0.0
28/08:43am 25.8 15.9 2.5 22 11.3 N 44 69 24 37 1008.9 1008.9 0.0
28/08:34am 25.1 17.6 3.7 25 10.6 N 32 50 17 27 1009.0 1009.0 0.0
28/08:30am 24.5 17.5 5.8 30 9.6 N 32 44 17 24 1008.9 1008.9 0.0
28/08:00am 22.3 14.6 5.3 33 8.5 N 35 46 19 25 1009.1 1009.1 0.0
28/07:30am 19.6 13.0 6.0 41 6.8 N 30 39 16 21 1009.4 1009.4 0.0
28/07:00am 17.8 11.9 6.0 46 5.8 N 26 35 14 19 1009.6 1009.6 0.0
28/06:30am 16.2 10.4 6.1 51 4.9 N 26 33 14 18 1009.5 1009.5 0.0
28/06:00am 14.1 9.0 6.2 59 3.8 NNE 22 28 12 15 1009.7 1009.7 0.0
28/05:30am 15.5 9.7 6.2 54 4.5 N 26 35 14 19 1010.0 1010.0 0.0
28/05:00am 15.2 9.1 6.7 57 4.2 N 28 37 15 20 1010.1 1010.1 0.0
28/04:30am 15.7 9.7 7.0 56 4.3 N 28 35 15 19 1010.4 1010.4 0.0
28/04:00am 11.3 7.0 7.2 76 2.0 N 19 22 10 12 1010.8 1010.8 0.0

Other Formats:

Comma delimited format used in spreadsheet applications
http://www.bom.gov.au/fwo/IDS60801/IDS60801.95670.axf

JavaScript Object Notation format (JSON) in row-major order
http://www.bom.gov.au/fwo/IDS60801/IDS60801.95670.json